Location: Cazarilh
(42.9578°N, 0.5819°E)
Time: 07:27:55
(UTC+00:00)

Cosmos 2263 Rocket - Pass Details

Date: 11 December 2019
Orbit: 824 x 848 km, 71.0° (Epoch: 27 January)

Event Time Altitude Azimuth Distance (km) Brightness Sun altitude
Exits shadow 04:38:27 - 191° (S) 2,808 4.9 -28.3°
Reaches altitude 10° 04:39:28 10° 189° (S) 2,424 4.5 -28.2°
Maximum altitude 04:44:56 62° 110° (ESE) 928 2.5 -27.2°
Drops below altitude 10° 04:50:24 10° 31° (NNE) 2,432 4.8 -26.2°
Sets 04:52:52 0° 28° (NNE) 3,368 5.6 -25.7°
